SCP
1 2 4 5 5 4 3 4 4 5 5 4 4 3 2 2 2 1 1 1 0 0 0 0 0 0 0 0 0 0 0 0 0 0 0 0 0 0 0 0 0 0 0
1 2 4 6 6 5 4 4 4 5 5 5 4 3 3 2 2 1 1 1 1 0 0 0 0 0 0 0 0 0 0 0 0 0 0 0 0 0 0 0 0 0 0
1 2 4 5 6 6 5 4 4 5 6 6 5 4 3 2 2 2 1 1 1 0 0 0 0 0 0 0 0 0 0 0 0 0 0 0 0 0 0 0 0 0 0
1 2 3 5 6 6 5 4 3 4 5 6 5 4 3 2 2 2 1 1 1 1 1 0 0 0 0 0 0 0 0 0 0 0 0 0 0 0 0 0 0 0 0
1 2 3 4 5 5 5 4 3 4 4 5 5 5 4 3 2 2 1 1 1 1 1 0 0 0 0 0 0 0 0 0 0 0 0 0 0 0 0 0 0 0 0
1 2 3 4 4 4 4 4 3 3 4 4 5 5 4 3 2 2 2 1 1 1 1 0 0 0 0 0 0 0 0 0 0 0 0 0 0 0 0 0 0 0 0
2 2 2 3 4 4 4 4 3 3 3 4 4 4 4 3 3 2 2 1 1 1 1 0 0 0 0 0 0 0 0 0 0 0 0 0 0 0 0 0 0 0 0
2 2 2 3 3 3 3 3 3 3 3 3 3 4 4 4 3 2 2 1 1 1 1 0 0 0 0 0 0 0 0 0 0 0 0 0 0 0 0 0 0 0 0
2 2 2 3 3 3 3 3 3 3 3 3 3 3 3 3 3 2 2 1 1 1 1 0 0 0 0 0 0 0 0 0 0 0 0 0 0 0 0 0 0 0 0
2 2 2 2 2 2 2 2 3 3 3 3 3 3 3 3 3 2 2 1 1 1 1 0 0 0 0 0 0 0 0 0 0 0 0 0 0 0 0 0 0 0 0
1 1 2 2 2 2 2 2 2 3 3 3 3 2 2 2 2 2 1 1 1 1 1 1 0 0 0 0 0 0 0 0 0 0 0 0 0 0 0 0 0 0 0
1 1 1 2 2 2 2 2 2 2 2 2 2 2 2 2 2 1 1 1 1 1 1 1 0 0 0 0 0 0 0 0 0 0 0 0 0 0 0 0 0 0 0
1 1 1 1 1 2 2 2 2 2 2 2 2 2 2 2 1 1 1 1 1 1 1 0 0 0 0 0 0 0 0 0 0 0 0 0 0 0 0 0 0 0 0
0 0 1 1 1 1 1 1 2 2 2 2 2 2 1 1 1 1 1 1 0 0 0 0 0 0 0 0 0 0 0 0 0 0 0 0 0 0 0 0 0 0 0
0 0 0 1 1 1 1 1 1 1 2 2 2 1 1 1 1 1 1 1 0 0 0 0 0 0 0 0 0 0 0 0 0 0 0 0 0 0 0 0 0 0 0
0 0 0 0 0 1 1 1 1 1 1 1 1 1 1 2 1 1 1 1 0 0 0 0 0 0 0 0 0 0 0 0 0 0 0 0 0 0 0 0 0 0 0
0 0 0 0 0 1 1 1 1 1 1 1 1 2 2 2 2 1 1 1 0 0 0 0 0 0 0 0 0 0 0 0 0 0 0 0 0 0 0 0 0 0 0
0 0 0 0 1 1 1 1 1 1 1 1 1 1 2 2 2 1 1 1 1 0 0 0 0 0 0 0 0 0 0 0 0 0 0 0 0 0 0 0 0 0 0
0 0 0 0 1 1 1 1 1 1 1 1 1 1 1 2 2 2 1 1 1 0 0 0 0 0 0 0 0 0 0 0 0 0 0 0 0 0 0 0 0 0 0
0 0 0 0 1 1 1 1 1 1 1 1 1 1 1 1 1 2 1 1 1 0 0 0 0 0 0 0 0 0 0 0 0 0 0 0 0 0 0 0 0 0 0
0 0 0 0 1 1 1 1 1 1 1 1 1 1 1 1 1 1 1 1 1 0 0 0 0 0 0 0 0 0 0 0 0 0 0 0 0 0 0 0 0 0 0
0 0 0 0 1 1 1 1 1 1 1 1 1 1 1 1 1 1 1 1 1 0 0 0 0 0 0 0 0 0 0 0 0 0 0 0 0 0 0 0 0 0 0
0 0 0 0 1 1 1 1 1 1 1 1 1 1 1 1 1 1 1 1 0 0 0 0 0 0 0 0 0 0 0 0 0 0 0 0 0 0 0 0 0 0 0
0 0 0 0 1 1 1 1 1 1 1 1 1 1 1 1 1 1 1 1 0 0 0 0 0 0 0 0 0 0 0 0 0 0 0 0 0 0 0 0 0 0 0
0 0 0 0 0 1 1 1 1 1 1 1 1 1 1 1 1 1 1 1 0 0 0 0 0 0 0 0 0 0 0 0 0 0 0 0 0 0 0 0 0 0 0
0 0 0 0 0 1 1 1 1 1 1 1 1 1 1 1 1 1 1 1 0 1 0 0 0 0 0 0 0 0 0 0 0 0 0 0 0 0 0 0 0 0 0
Wind_Speed
3 7 16 18 18 18 17 17 16 16 17 17 18 19 19 18 18 18 17 16 16 16 17 17 17 17 17 17 16 16 16 15 16 16 15 14 15 15 15 14 12 8 15
4 8 14 17 18 18 17 16 16 15 16 17 18 18 18 18 18 17 17 17 16 16 17 17 18 18 17 17 16 16 15 15 15 15 13 11 13 14 14 13 12 9 14
5 8 12 15 16 17 17 16 16 16 16 16 17 18 18 18 18 17 17 16 16 16 17 17 17 17 17 16 16 15 15 15 14 13 11 6 8 13 13 12 12 13 13
5 7 9 14 16 17 17 17 16 16 16 16 17 17 17 17 17 17 17 17 16 17 17 17 17 17 16 16 15 14 14 14 13 11 5 4 5 11 12 12 12 12 12
4 5 8 14 15 16 16 17 17 17 16 16 16 16 17 17 17 17 17 16 16 16 17 17 17 16 15 14 14 14 13 13 12 9 5 4 4 10 12 12 12 12 12
2 3 6 13 15 15 16 16 17 17 17 16 16 16 17 17 17 17 15 15 15 16 17 17 16 15 14 13 13 13 13 12 9 5 4 4 3 10 12 11 11 11 11
1 1 3 10 14 14 15 16 16 17 17 17 17 17 17 17 17 16 15 15 16 16 17 17 16 15 13 13 13 13 13 12 6 4 3 3 4 10 10 10 10 10 10
1 0 2 8 11 13 14 14 15 16 16 16 16 16 17 17 16 16 16 16 17 17 17 16 15 14 13 12 13 13 12 9 7 4 3 2 5 8 9 9 9 9 9
1 0 1 3 6 10 12 13 14 14 14 14 15 15 14 14 15 17 17 17 17 17 16 15 15 14 12 12 12 12 10 9 5 3 3 2 5 7 8 7 7 7 7
2 1 2 3 3 4 7 11 13 14 14 13 13 13 13 13 14 15 15 15 16 16 15 14 14 13 12 11 11 10 9 7 4 3 2 2 5 6 7 6 6 6 6
4 3 2 3 3 4 5 8 10 11 12 12 11 12 11 8 9 10 12 14 14 15 14 14 13 12 9 9 9 9 7 3 3 2 2 3 5 6 6 5 5 4 4
5 5 3 3 3 4 5 5 5 6 7 7 6 8 7 6 7 9 12 13 14 13 13 13 11 10 7 4 5 6 3 3 3 2 2 5 6 6 5 4 4 3 3
5 5 4 4 4 5 4 4 3 3 4 6 7 8 7 6 6 6 6 7 8 9 6 8 6 4 4 3 3 3 3 3 2 2 2 5 6 6 5 5 4 3 2
6 7 6 4 4 5 4 4 4 4 4 5 7 9 7 6 6 6 5 6 5 4 5 4 4 4 4 4 4 3 3 2 2 2 3 5 6 6 5 5 4 3 2
7 7 7 5 5 5 5 5 5 5 6 6 6 8 9 7 8 7 6 6 6 5 5 5 4 5 4 4 3 4 3 3 3 3 2 5 5 5 5 5 4 3 3
9 8 7 6 6 6 5 5 5 5 5 6 6 8 10 7 8 8 8 7 7 6 6 6 5 5 4 3 3 3 3 3 3 3 3 3 5 6 5 5 5 4 3
9 8 8 7 7 7 7 7 5 5 5 6 6 9 10 8 8 8 8 8 7 7 7 5 5 3 3 3 3 3 3 3 3 4 3 2 3 5 6 6 5 4 3
9 9 8 7 7 8 7 7 5 5 6 5 6 7 10 10 9 8 8 8 8 7 6 6 5 4 4 3 3 2 2 2 3 3 3 3 2 2 4 6 5 5 4
9 9 8 8 8 8 8 6 6 5 6 5 5 6 9 11 11 9 8 7 8 7 6 7 5 4 4 4 3 2 2 2 3 3 3 4 4 3 3 3 5 4 4
8 8 8 8 8 8 6 5 4 5 5 5 6 7 9 9 11 10 7 8 9 8 7 7 6 4 4 4 3 1 1 2 2 3 4 3 3 4 4 3 2 2 3
7 8 8 8 8 7 5 5 6 6 6 6 7 8 9 10 11 11 9 9 9 9 9 9 6 6 4 3 3 0 1 1 2 3 3 3 3 4 4 4 3 2 2
6 7 7 8 8 8 7 6 4 4 4 5 6 7 10 11 11 11 11 10 11 9 10 10 7 5 4 5 4 3 1 2 2 2 2 3 3 3 3 4 3 3 2
6 6 6 7 7 8 8 5 3 3 2 4 5 6 9 11 11 11 12 11 11 10 10 11 10 9 6 5 4 5 4 4 2 1 2 2 3 3 3 3 4 4 4
5 5 5 5 6 6 7 7 8 7 6 6 6 7 7 10 11 11 11 11 11 10 9 10 10 7 7 6 4 3 3 4 3 2 1 2 3 4 4 4 4 4 4
3 3 4 4 4 5 6 7 8 7 6 4 5 7 8 8 10 11 11 11 11 10 10 10 9 8 7 7 6 4 3 1 2 3 3 2 2 3 4 4 4 4 4
4 2 2 2 3 3 5 6 8 8 8 7 7 7 6 6 7 10 11 11 10 9 9 9 9 10 9 8 6 5 4 4 4 4 4 3 3 3 3 3 4 4 4
Wind_Direction
196 177 171 163 161 159 157 153 148 143 141 141 141 141 142 142 141 140 138 135 133 131 127 125 123 120 116 112 106 102 98 94 91 87 86 86 87 87 84 78 74 69 77
178 174 172 164 163 162 160 156 151 147 145 144 144 144 144 144 143 143 141 139 137 133 130 128 124 121 117 112 108 104 100 96 93 90 85 84 88 89 87 84 81 80 79
162 170 170 165 165 164 162 159 155 152 150 148 148 148 148 147 146 145 144 142 139 136 133 130 126 122 118 115 112 109 105 102 97 93 87 78 89 92 91 87 83 82 81
164 167 169 167 167 167 165 162 160 159 156 153 153 153 152 151 150 149 147 145 141 138 134 130 126 123 121 119 117 114 111 107 103 96 77 69 82 94 94 91 86 84 83
158 165 170 170 171 171 169 166 166 165 162 160 159 158 157 155 154 153 151 147 143 139 135 132 129 127 125 123 122 121 117 113 106 94 81 73 76 96 94 90 87 85 83
135 154 174 176 175 175 173 172 172 170 168 166 166 165 163 161 158 156 153 147 142 139 138 136 134 131 127 125 127 128 124 118 105 93 87 83 86 100 97 94 91 87 84
101 133 185 184 182 180 179 178 178 176 175 173 172 171 169 166 162 158 153 148 145 143 143 142 140 136 132 130 130 131 129 124 112 103 96 91 106 107 103 98 94 90 87
11 243 204 198 190 186 184 182 182 180 180 179 178 177 174 171 166 159 156 152 150 149 149 148 146 141 137 135 134 134 134 131 121 114 110 106 120 112 108 105 100 95 91
21 267 223 213 197 192 190 188 187 184 183 182 182 180 177 173 168 161 159 158 156 155 154 153 151 146 140 137 138 139 139 131 126 129 129 134 133 123 117 112 106 100 94
351 290 243 213 209 201 199 198 192 188 186 186 184 180 176 173 169 163 161 162 161 159 158 158 155 150 143 140 141 142 139 129 134 138 139 173 154 138 129 122 115 107 101
334 320 283 235 215 206 203 204 197 192 191 189 184 177 171 170 166 162 162 164 162 161 161 161 158 151 140 137 140 142 135 136 148 158 178 195 167 153 142 134 127 117 107
308 303 285 258 230 217 213 198 196 194 189 187 178 173 167 161 161 159 164 164 164 162 162 162 159 148 130 124 133 133 136 150 161 180 207 208 183 169 159 154 146 136 124
274 279 279 256 235 218 211 198 189 189 185 182 177 172 162 156 157 155 159 164 161 158 156 159 151 139 138 139 137 143 156 161 175 195 220 223 203 188 179 177 175 172 174
269 267 266 256 234 222 213 205 193 188 185 184 181 174 167 164 163 164 167 163 161 160 156 152 149 150 151 153 153 157 168 176 186 196 227 231 220 207 199 194 193 201 213
258 260 258 245 230 219 213 208 197 194 191 185 181 181 177 172 171 170 170 169 166 162 165 162 160 162 163 163 166 168 179 192 198 204 227 232 224 217 213 209 207 208 214
252 251 252 245 230 214 211 209 202 194 188 184 184 185 183 178 174 174 174 174 174 172 172 169 169 168 171 169 178 183 189 195 206 207 214 229 225 221 220 219 217 213 206
249 248 243 242 229 216 213 210 203 196 187 189 189 186 186 182 179 178 178 180 180 174 169 163 162 157 168 177 190 193 193 202 205 210 210 211 217 224 220 220 218 215 215
247 247 242 238 223 215 213 209 201 198 192 193 189 187 188 186 181 180 183 185 177 173 172 171 170 170 181 183 191 201 200 204 211 211 206 204 200 206 216 217 215 213 215
241 240 239 232 222 214 210 207 200 196 195 192 188 188 191 189 183 184 188 185 176 177 178 181 176 172 181 185 192 201 205 208 210 204 206 205 198 194 194 206 203 202 206
241 237 235 230 224 213 206 198 195 199 199 191 193 193 192 191 187 185 188 184 181 182 183 182 175 173 175 171 170 181 215 223 212 208 209 202 195 193 188 184 182 194 200
243 237 232 228 221 203 194 193 192 201 200 196 199 198 196 195 193 189 190 185 186 191 189 183 172 173 172 147 127 120 313 248 225 222 207 199 197 192 182 182 180 178 191
243 240 232 228 218 204 199 194 185 182 193 197 199 199 200 197 196 195 192 190 190 192 189 183 172 168 171 167 150 140 222 294 259 224 205 205 202 187 190 188 181 181 180
250 241 237 230 218 205 199 192 178 168 170 186 194 201 202 200 199 198 198 192 192 192 194 190 184 179 177 184 177 163 170 211 233 249 218 209 198 195 199 188 188 187 183
257 242 234 226 214 201 192 192 191 191 199 202 198 200 196 197 199 199 199 196 193 194 196 195 190 185 175 183 195 205 184 161 165 212 258 223 206 207 206 199 193 191 183
293 260 238 224 212 197 193 199 203 206 206 199 190 194 198 199 200 198 197 197 196 196 197 195 191 190 188 186 183 176 176 177 172 175 217 222 220 219 209 202 198 194 189
332 304 278 234 225 204 197 200 205 206 202 196 196 197 200 199 200 198 196 198 198 197 196 196 196 196 198 196 192 184 177 180 191 188 204 214 219 217 208 201 200 200 196